Вернуться в каталог

STARLINK-35501

АктивенСвязьVLEO
NORAD 66436·PAYLOAD·🇺🇸 United States

Запущен Nov 11, 2025 с Cape Canaveral Space Force Station

Loading…

Ближайшие Пролёты (ближайшие 24 часа)

TLE

СвежийSource: CelesTrak SupGP

Эпоха: Sep 15, 2026, 03:47 UTC

1 66436C 25259Q   26258.15812500 -.00007910  00000+0 -28648-3 0  2580
2 66436  42.9995 284.0210 0001368 262.3873  23.1658 15.27585195    15

Отслеживайте STARLINK-35501 в реальном времени с AllMySat

Download on the App Store